This is the latest recevied weather packets stored in our database for station/object N3WMC. If no packets are shown the sender has not sent any weather packets the latest 10 day(s).
| Time | Temp. | Humidity | Pressure | Rain* | Wind** | Luminosity | Snow |
|---|---|---|---|---|---|---|---|
| 1787663960 | 19.44° C | 83% | 1020.8 hPa | 0 mm | - | 189 W/m² | - |
| 1787663655 | 18.89° C | 83% | 1020.7 hPa | 0 mm | - | 165 W/m² | - |
| 1787663350 | 18.89° C | 83% | 1020.5 hPa | 0 mm | - | 164 W/m² | - |
| 1787663047 | 18.89° C | 83% | 1020.6 hPa | 0 mm | - | 151 W/m² | - |
| 1787662747 | 18.33° C | 85% | 1020.4 hPa | 0 mm | - | 123 W/m² | - |
| 1787662441 | 18.33° C | 85% | 1020.5 hPa | 0 mm | - | 115 W/m² | - |
| 1787662136 | 18.33° C | 85% | 1020.7 hPa | 0 mm | - | 112 W/m² | - |
| 1787661833 | 18.33° C | 85% | 1020.4 hPa | 0 mm | - | 109 W/m² | - |
| 1787661532 | 18.33° C | 85% | 1020.5 hPa | 0 mm | - | 99 W/m² | - |
| 1787661231 | 18.33° C | 86% | 1020.7 hPa | 0 mm | - | 87 W/m² | - |
| 1787660929 | 17.78° C | 86% | 1020.7 hPa | 0 mm | - | 79 W/m² | - |
| 1787660619 | 17.78° C | 87% | 1020.5 hPa | 0 mm | - | 78 W/m² | - |
| 1787660314 | 17.78° C | 87% | 1020.6 hPa | 0 mm | - | 75 W/m² | - |
| 1787660009 | 17.78° C | 88% | 1020.5 hPa | 0 mm | - | 70 W/m² | - |
| 1787659707 | 17.78° C | 88% | 1020.4 hPa | 0 mm | - | 73 W/m² | - |
| 1787659402 | 17.22° C | 89% | 1020.3 hPa | 0 mm | - | 66 W/m² | - |
| 1787659102 | 17.22° C | 91% | 1020.4 hPa | 0 mm | - | 53 W/m² | - |
| 1787658797 | 16.67° C | 93% | 1020.4 hPa | 0 mm | - | 35 W/m² | - |
| 1787658496 | 16.67° C | 94% | 1020.2 hPa | 0 mm | - | 24 W/m² | - |
| 1787658193 | 16.67° C | 95% | 1020.3 hPa | 0 mm | - | 29 W/m² | - |
| 1787657888 | 16.67° C | 95% | 1020.1 hPa | 0 mm | - | 31 W/m² | - |
| 1787657588 | 16.67° C | 95% | 1020.1 hPa | 0 mm | - | 30 W/m² | - |
| 1787657283 | 16.67° C | 95% | 1020.1 hPa | 0 mm | - | 23 W/m² | - |
| 1787656978 | 16.67° C | 95% | 1019.9 hPa | 0 mm | - | 18 W/m² | - |
| 1787656675 | 16.67° C | 96% | 1020 hPa | 0 mm | - | 13 W/m² | - |
* Rain latest hour (hover to see other rain measurements)
** Current wind speed in m/s (hover to see current wind gust speed)